GW4746 Weather Reports


Display with metric or nautical units.
time (UTC)temp
F
wind
direction
speed
MPH
gust
MPH
rain 1hr
in
rain 24hr
in
rain mn
in
humidity
%
barometer
mb
20260905050029 83 154 0.0 2.0 0.00 0.00 0.00 54 1014.5
20260905044531 83 169 0.0 5.0 0.00 0.00 0.00 54 1014.5
20260905043001 84 125 0.0 4.0 0.00 0.00 0.00 53 1014.6
20260905041520 84 165 1.0 1.0 0.00 0.00 0.00 53 1014.6
20260905040007 85 164 0.0 3.0 0.00 0.00 0.00 52 1014.4
20260905034509 85 164 1.0 4.0 0.00 0.00 0.00 52 1014.3
20260905033008 85 186 0.0 3.0 0.00 0.00 0.00 51 1014.4
20260905031500 86 110 0.0 3.0 0.00 0.00 0.00 51 1014.3
20260905030004 86 171 0.0 3.0 0.00 0.00 0.00 50 1014.1
20260905024505 87 154 1.0 3.0 0.00 0.00 0.00 49 1014.0
20260905023017 87 98 2.0 3.0 0.00 0.00 0.00 49 1013.7
20260905021510 87 130 1.0 4.0 0.00 0.00 0.00 49 1013.5
20260905020004 88 166 0.0 2.0 0.00 0.00 0.00 48 1013.5
20260905014505 88 72 1.0 6.0 0.00 0.00 0.00 48 1013.3
20260905013035 89 160 1.0 3.0 0.00 0.00 0.00 47 1013.2
20260905011508 89 136 2.0 5.0 0.00 0.00 0.00 46 1013.0
20260905010012 90 163 2.0 8.0 0.00 0.00 0.00 46 1012.8
20260905004502 91 154 2.0 7.0 0.00 0.00 0.00 46 1012.8
20260905003009 91 147 2.0 5.0 0.00 0.00 0.00 45 1012.9
20260905001534 92 163 3.0 6.0 0.00 0.00 0.00 45 1013.0
20260905000011 93 196 2.0 8.0 0.00 0.00 0.00 45 1012.7
20260904234521 94 135 4.0 8.0 0.00 0.00 0.00 43 1012.5
20260904233023 95 89 4.0 10.0 0.00 0.00 0.00 42 1012.3
20260904231506 96 138 4.0 10.0 0.00 0.00 0.00 41 1012.0
20260904230004 97 115 3.0 8.0 0.00 0.00 0.00 38 1011.6
20260904224511 97 98 3.0 6.0 0.00 0.00 0.00 39 1011.3
20260904223016 98 187 1.0 8.0 0.00 0.00 0.00 40 1011.6
20260904221524 98 91 2.0 8.0 0.00 0.00 0.00 40 1011.9
20260904220004 98 145 2.0 5.0 0.00 0.00 0.00 38 1011.8
20260904214533 98 117 4.0 8.0 0.00 0.00 0.00 40 1011.9
20260904213011 98 105 4.0 13.0 0.00 0.00 0.00 41 1011.8
20260904211517 100 68 4.0 11.0 0.00 0.00 0.00 39 1011.7
20260904210023 101 146 2.0 5.0 0.00 0.00 0.00 37 1011.9
20260904204533 100 114 0.0 5.0 0.00 0.00 0.00 38 1012.4
20260904203010 100 316 1.0 5.0 0.00 0.00 0.00 39 1012.8
20260904201528 99 314 2.0 4.0 0.00 0.00 0.00 39 1013.1
20260904200037 99 98 2.0 5.0 0.00 0.00 0.00 39 1013.3
20260904194524 100 163 2.0 5.0 0.00 0.00 0.00 40 1013.5
20260904193039 98 151 2.0 6.0 0.00 0.00 0.00 42 1013.5
20260904191536 99 179 3.0 7.0 0.00 0.00 0.00 42 1013.7
20260904190032 98 185 2.0 8.0 0.00 0.00 0.00 43 1013.9
20260904184535 98 168 2.0 7.0 0.00 0.00 0.00 42 1013.9
20260904183035 98 219 2.0 5.0 0.00 0.00 0.00 42 1014.1
20260904181528 98 160 1.0 5.0 0.00 0.00 0.00 42 1014.2
20260904180036 97 161 2.0 5.0 0.00 0.00 0.00 44 1014.5
20260904174531 96 242 1.0 7.0 0.00 0.00 0.00 46 1014.7
20260904173018 95 307 1.0 6.0 0.00 0.00 0.00 48 1014.9
20260904171549 94 126 2.0 5.0 0.00 0.00 0.00 47 1015.0
20260904170029 94 245 2.0 5.0 0.00 0.00 0.00 49 1015.1
20260904164529 93 177 3.0 6.0 0.00 0.00 0.00 50 1015.2
20260904163038 91 198 3.0 7.0 0.00 0.00 0.00 53 1015.2
20260904161524 90 155 2.0 6.0 0.00 0.00 0.00 55 1015.3
20260904160028 90 180 2.0 6.0 0.00 0.00 0.00 54 1015.2
20260904154533 89 255 1.0 6.0 0.00 0.00 0.00 55 1015.1
20260904153012 88 148 1.0 7.0 0.00 0.00 0.00 57 1015.0
20260904151529 87 181 3.0 7.0 0.00 0.00 0.00 58 1015.1
20260904150024 86 165 1.0 6.0 0.00 0.00 0.00 59 1015.1
20260904144531 85 160 3.0 6.0 0.00 0.00 0.00 60 1015.0
20260904143040 84 185 2.0 5.0 0.00 0.00 0.00 61 1015.0
20260904141530 83 206 3.0 7.0 0.00 0.00 0.00 61 1015.0
20260904140017 83 163 1.0 5.0 0.00 0.00 0.00 61 1014.9
20260904134526 82 164 2.0 4.0 0.00 0.00 0.00 61 1015.0
20260904133028 81 155 1.0 3.0 0.00 0.00 0.00 63 1014.7
20260904131512 80 167 1.0 4.0 0.00 0.00 0.00 64 1014.7
20260904130016 79 207 0.0 3.0 0.00 0.00 0.00 65 1014.6
20260904124522 79 152 1.0 3.0 0.00 0.00 0.00 66 1014.2
20260904123026 79 163 0.0 5.0 0.00 0.00 0.00 66 1013.8
20260904121532 79 203 1.0 5.0 0.00 0.00 0.00 66 1013.7
20260904120015 79 209 0.0 3.0 0.00 0.00 0.00 67 1013.6
20260904114538 79 188 1.0 5.0 0.00 0.00 0.00 67 1013.4
20260904113025 79 174 1.0 4.0 0.00 0.00 0.00 67 1013.3
20260904111528 79 193 1.0 3.0 0.00 0.00 0.00 67 1013.3
20260904110032 79 136 0.0 4.0 0.00 0.00 0.00 66 1013.2
20260904104535 79 170 2.0 5.0 0.00 0.00 0.00 66 1013.1
20260904103017 80 177 2.0 4.0 0.00 0.00 0.00 66 1013.0
20260904101534 80 201 1.0 4.0 0.00 0.00 0.00 66 1013.0
20260904100027 80 176 0.0 5.0 0.00 0.00 0.00 65 1012.9
20260904094532 80 233 1.0 6.0 0.00 0.00 0.00 65 1012.7
20260904093012 81 195 3.0 5.0 0.00 0.00 0.00 65 1012.6
20260904091534 81 154 2.0 5.0 0.00 0.00 0.00 64 1012.6
20260904090035 81 153 2.0 6.0 0.00 0.00 0.00 64 1012.6
20260904084530 81 189 2.0 6.0 0.00 0.00 0.00 63 1012.6
20260904083032 82 144 1.0 6.0 0.00 0.00 0.00 63 1012.7
20260904081532 82 172 1.0 5.0 0.00 0.00 0.00 63 1012.7
20260904080055 82 158 1.0 4.0 0.00 0.00 0.00 62 1012.7
20260904074528 83 133 2.0 4.0 0.00 0.00 0.00 61 1012.8
20260904073036 83 111 1.0 5.0 0.00 0.00 0.00 61 1012.8
20260904071535 83 127 2.0 5.0 0.00 0.00 0.00 60 1012.8
20260904070045 84 161 2.0 5.0 0.00 0.00 0.00 59 1012.7
20260904064537 84 150 2.0 9.0 0.00 0.00 0.00 58 1012.8
20260904063047 85 207 1.0 7.0 0.00 0.00 0.00 58 1012.8
20260904061533 85 179 1.0 6.0 0.00 0.00 0.00 57 1012.7
20260904060034 85 242 1.0 4.0 0.00 0.00 0.00 56 1012.7
20260904054531 86 165 1.0 9.0 0.00 0.00 0.00 55 1012.6
20260904053051 86 113 1.0 5.0 0.00 0.00 0.00 55 1012.5
20260904051533 86 156 2.0 6.0 0.00 0.00 0.00 55 1012.4